Amateur radio
NORAD ID: 25509
Int'l Code: 1998-061B
Perigee: 549.9 km
Apogee: 1,054.1 km
Inclination: 31.4 °
Period: 100.8 minutes
Semi major axis: 7173 km
Launch date: October 24, 1998
Source: United States (US)
Two Line Element Set (TLE):
1 25509U 98061B 13138.50265719 .00000634 00000-0 11126-3 0 4987
2 25509 031.4335 235.6935 0351508 258.0315 210.5692 14.29062997760648
Source:
NASA's NSSDC Master Catalog entry for SEDSAT 1